NWS Melbourne » East Central Florida Hourly Weather Roundup

MIARWRMLB 000
TTAA00 KMLB 300411
HOURLY WEATHER ROUNDUP AROUND FLORIDA
NATIONAL WEATHER SERVICE OFFICE MELBOURNE FL
1100 PM EST THU JAN 29 2015
  
CITY           SKY/WX    TMP DP  RH WIND       PRES   REMARKS
MELBOURNE      CLEAR     53  49  86 CALM      30.24F                  
FORT PIERCE    CLEAR     47  44  90 CALM      30.24S                  
ORLANDO INTL   CLEAR     54  50  86 S3        30.24F                  
DAYTONA BEACH  PTCLDY    51  48  89 SW3       30.23F                  
VERO BEACH     CLEAR     49  45  86 CALM      30.24F                  
$$
...ELSEWHERE ACROSS CENTRAL FLORIDA...
  
CITY           SKY/WX    TMP DP  RH WIND       PRES   REMARKS
PATRICK AFB    CLEAR     58  52  81 NE2       30.23F                  
JFK SPACE CTR  CLEAR     49  46  88 S3        30.22F                  
CAPE CANAVERAL CLEAR     47  44  90 E2        30.22F                  
ORLANDO EXEC   CLEAR     55  48  77 CALM      30.23F                  
LEESBURG       CLEAR     51  46  83 CALM      30.25S                  
SANFORD        CLEAR     56  49  77 S3        30.23F                  
WINTER HAVEN   CLEAR     58  44  60 N3        30.26S                  
OKEECHOBEE     CLEAR     46  46 100 CALM      30.25S                  
TAMPA          CLEAR     57  48  72 CALM      30.25F                  
$$
...NORTHERN FLORIDA...
  
CITY           SKY/WX    TMP DP  RH WIND       PRES   REMARKS
DELAND         CLEAR    N/A N/A N/A CALM      30.24S                  
ST AUGUSTINE   PTCLDY    54  50  86 SW7       30.22S                  
OCALA          CLEAR     45  39  81 S3        30.24S                  
GAINESVILLE    PTCLDY    49  41  74 W8        30.23S                  
JACKSONVILLE   MOCLDY    49  48  97 S8        30.19F                  
TALLAHASSEE    PTCLDY    47  39  74 CALM      30.22S                  
$$
...ALONG THE SOUTHEAST COAST TO THE KEYS...
  
CITY           SKY/WX    TMP DP  RH WIND       PRES   REMARKS
STUART         MOCLDY    55  50  82 CALM      30.25S                  
WEST PALM BCH  MOCLDY    60  52  74 NW5       30.23R                  
MIAMI          MOCLDY    65  53  65 CALM      30.23F                  
KEY WEST       PTCLDY    65  56  72 NE9       30.23R                  
$$
...MARINE REPORTS...
  
STATION/POSITION TIME  TEMP    WIND        PRES    WAVE   SWELL
                       AIR SEA DIR/SP/G            HT/PER HT/PER/DIR
                 (UTC) (F)     (DEG/KT/KT) (MB)    (FT/S) (FT/S/D)
ST AUGUSTINE FP  0400   55     210/  8/ 10 1023.5F
20NM E CAPE CANA 0400   65 69  300/  6/  6 1024.0F   4/11   3/ 70/11
120 E NEW SMYRNA 0400   65 75  250/  4/  6 1024.5F   6/10   5/ 30/10
TRIDENT PIER     0400   55 63   CALM  /  1 1023.5F
SEBASTIAN INLET  0400   62     330/  1     1025.0S
4NM E PORT CANAV 0400      62                N/A     2/11   2/ 80/11
6NM NE FPR INLET 0400      65                N/A     3/10   2/ 60/11
SETTLEMENT PT GB 0400   64     100/  8/  9 1024.5F
$$
  
 


USA.gov is the U.S. government's official web portal to all federal, state and local government web resources and services.